Location: Eaton Estates
(41.3089°N, 82.0057°W)
Time: 12:54:17
(UTC+00:00)

Helios 1B rocket - Pass Details

Date: 17 June 2021
Orbit: 573 x 583 km, 98.2° (Epoch: 27 July)

Event Time Altitude Azimuth Distance (km) Brightness Sun altitude
Rises 06:58:28 0° 17° (NNE) 2,797 7.4 -22.1°
Reaches altitude 10° 07:00:40 10° 22° (NNE) 1,892 6.2 -21.9°
Maximum altitude 07:04:41 54° 100° (E) 704 2.8 -21.6°
Enters shadow 07:05:22 47° 138° (SE) 765 2.8 -21.6°
